Location: Newark
(7.0858°N, 171.3717°E)
Time: 01:33:11
(UTC+00:00)

Transit 2A - Pass Details

Date: 01 December 2020
Orbit: 598 x 960 km, 66.7° (Epoch: 20 January)

Event Time Altitude Azimuth Distance (km) Brightness Sun altitude
Rises 04:01:52 0° 200° (SSW) 3,552 10.1 29.2°
Reaches altitude 10° 04:04:21 10° 200° (SSW) 2,640 9.6 28.7°
Maximum altitude 04:10:37 90° 92° (E) 960 7.0 27.3°
Drops below altitude 10° 04:16:57 10° 20° (NNE) 2,673 8.5 25.9°
Sets 04:19:29 0° 20° (NNE) 3,600 9.1 25.4°
